{"data":{"norad_id":60728,"intl_designator":"2024-152J","name":"STARLINK-11249 [DTC]","alt_names":[],"object_type":"PAYLOAD","status":"ACTIVE","operator":null,"country":"US","launch_date":"2024-08-28","launch_site_code":"AFETR","launch_vehicle":null,"mission":null,"orbit_class":"UNKNOWN","rcs_meters":null,"size_class":null,"mass_kg":null,"dimensions":null,"purposes":["comms"],"wikipedia_slug":null,"has_3d_model":false,"image_url":null,"decayed_at":null,"tle_current":{"epoch":"2026-05-25T03:15:21.284064Z","epoch_age_seconds":77505,"freshness":"FRESH","line1":"1 60728U 24152J   26145.13566301  .00002683  00000+0  27005-4 0  9996","line2":"2 60728  53.1592  99.2672 0001095  68.3961 291.7173 15.69702784100845","mean_motion":15.69702784,"eccentricity":0.0001095,"inclination_deg":53.1592,"raan_deg":99.2672,"arg_perigee_deg":68.3961,"mean_anomaly_deg":291.7173,"bstar":2.7005e-5,"rev_number":10084,"period_min":91.737111934688,"perigee_km":359.00960158696,"apogee_km":360.48519827054,"semimajor_km":6737.8843999287,"source":"CELESTRAK","updated_at":"2026-05-25T13:38:19.309125Z"}}}